owner,sensor,date,latitude,longitude,vertical_datum,sea_water_practical_salinity,qcFlag 
DISL,ioos:station:DISL:MBLA:1,2011-11-01T00:02:00Z,30.4367,-88.0117,2.989,25.12,1111122 
DISL,ioos:station:DISL:MBLA:1,2011-11-01T00:05:00Z,30.4367,-88.0117,2.51,24.04,1111122 
DISL,ioos:station:DISL:MBLA:1,2011-11-01T00:07:00Z,30.4367,-88.0117,1.989,23.22,1111122 
DISL,ioos:station:DISL:MBLA:1,2011-11-01T00:10:00Z,30.4367,-88.0117,1.468,22.49,1111122 
DISL,ioos:station:DISL:MBLA:1,2011-11-01T00:12:00Z,30.4367,-88.0117,0.942,22.19,1111122 
DISL,ioos:station:DISL:MBLA:1,2011-11-01T00:14:00Z,30.4367,-88.0117,0.47,22.24,1111122 
DISL,ioos:station:DISL:MBLA:1,2011-11-01T00:30:00Z,30.4367,-88.0117,1.0,22.2,11111222 
DISL,ioos:station:DISL:MBLA:1,2011-11-01T01:02:00Z,30.4367,-88.0117,2.942,24.94,1111122 
DISL,ioos:station:DISL:MBLA:1,2011-11-01T01:05:00Z,30.4367,-88.0117,2.536,24.8,1111122 
DISL,ioos:station:DISL:MBLA:1,2011-11-01T01:07:00Z,30.4367,-88.0117,1.952,23.17,1111122 
DISL,ioos:station:DISL:MBLA:1,2011-11-01T01:10:00Z,30.4367,-88.0117,1.503,22.78,1111122 
DISL,ioos:station:DISL:MBLA:1,2011-11-01T01:12:00Z,30.4367,-88.0117,0.979,22.58,1111122 
DISL,ioos:station:DISL:MBLA:1,2011-11-01T01:14:00Z,30.4367,-88.0117,0.457,22.55,1111122 
DISL,ioos:station:DISL:MBLA:1,2011-11-01T01:30:00Z,30.4367,-88.0117,1.0,22.6,11111222 
DISL,ioos:station:DISL:MBLA:1,2011-11-01T02:02:00Z,30.4367,-88.0117,2.941,24.12,1111122 
DISL,ioos:station:DISL:MBLA:1,2011-11-01T02:05:00Z,30.4367,-88.0117,2.527,23.54,1111122 
DISL,ioos:station:DISL:MBLA:1,2011-11-01T02:07:00Z,30.4367,-88.0117,2.015,23.22,1111122 
DISL,ioos:station:DISL:MBLA:1,2011-11-01T02:10:00Z,30.4367,-88.0117,1.506,23.12,1111122 
DISL,ioos:station:DISL:MBLA:1,2011-11-01T02:12:00Z,30.4367,-88.0117,0.986,23.06,1111122 
DISL,ioos:station:DISL:MBLA:1,2011-11-01T02:14:00Z,30.4367,-88.0117,0.463,22.78,1111122 
DISL,ioos:station:DISL:MBLA:1,2011-11-01T02:30:00Z,30.4367,-88.0117,1.0,23.1,11111222 
DISL,ioos:station:DISL:MBLA:1,2011-11-01T03:02:00Z,30.4367,-88.0117,2.943,24.06,1111122 
DISL,ioos:station:DISL:MBLA:1,2011-11-01T03:05:00Z,30.4367,-88.0117,2.527,24.06,1111122 
DISL,ioos:station:DISL:MBLA:1,2011-11-01T03:07:00Z,30.4367,-88.0117,1.958,23.85,1111122 
DISL,ioos:station:DISL:MBLA:1,2011-11-01T03:10:00Z,30.4367,-88.0117,1.519,23.62,1111122 
DISL,ioos:station:DISL:MBLA:1,2011-11-01T03:12:00Z,30.4367,-88.0117,1.003,23.23,1111122 
DISL,ioos:station:DISL:MBLA:1,2011-11-01T03:14:00Z,30.4367,-88.0117,0.482,22.95,1111122 
DISL,ioos:station:DISL:MBLA:1,2011-11-01T03:30:00Z,30.4367,-88.0117,1.0,23.2,11111222 
DISL,ioos:station:DISL:MBLA:1,2011-11-01T04:02:00Z,30.4367,-88.0117,2.965,25.0,1111122 
DISL,ioos:station:DISL:MBLA:1,2011-11-01T04:05:00Z,30.4367,-88.0117,2.542,24.66,1111122 
DISL,ioos:station:DISL:MBLA:1,2011-11-01T04:07:00Z,30.4367,-88.0117,1.97,23.91,1111122 
DISL,ioos:station:DISL:MBLA:1,2011-11-01T04:10:00Z,30.4367,-88.0117,1.459,23.62,1111122 
DISL,ioos:station:DISL:MBLA:1,2011-11-01T04:12:00Z,30.4367,-88.0117,1.015,23.44,1111122 
DISL,ioos:station:DISL:MBLA:1,2011-11-01T04:14:00Z,30.4367,-88.0117,0.494,23.33,1111122 
DISL,ioos:station:DISL:MBLA:1,2011-11-01T04:30:00Z,30.4367,-88.0117,1.0,23.4,11111222 
DISL,ioos:station:DISL:MBLA:1,2011-11-01T05:02:00Z,30.4367,-88.0117,2.957,25.14,1111122 
DISL,ioos:station:DISL:MBLA:1,2011-11-01T05:05:00Z,30.4367,-88.0117,2.534,24.85,1111122 
DISL,ioos:station:DISL:MBLA:1,2011-11-01T05:07:00Z,30.4367,-88.0117,1.965,24.41,1111122 
DISL,ioos:station:DISL:MBLA:1,2011-11-01T05:10:00Z,30.4367,-88.0117,1.526,24.13,1111122 
DISL,ioos:station:DISL:MBLA:1,2011-11-01T05:12:00Z,30.4367,-88.0117,1.007,23.98,1111122 
DISL,ioos:station:DISL:MBLA:1,2011-11-01T05:14:00Z,30.4367,-88.0117,0.489,23.89,1111122 
DISL,ioos:station:DISL:MBLA:1,2011-11-01T05:30:00Z,30.4367,-88.0117,1.0,24.0,11111222 
DISL,ioos:station:DISL:MBLA:1,2011-11-01T06:02:00Z,30.4367,-88.0117,2.95,25.13,1111122 
DISL,ioos:station:DISL:MBLA:1,2011-11-01T06:05:00Z,30.4367,-88.0117,2.518,24.81,1111122 
DISL,ioos:station:DISL:MBLA:1,2011-11-01T06:07:00Z,30.4367,-88.0117,1.953,24.59,1111122 
DISL,ioos:station:DISL:MBLA:1,2011-11-01T06:10:00Z,30.4367,-88.0117,1.513,24.43,1111122 
DISL,ioos:station:DISL:MBLA:1,2011-11-01T06:12:00Z,30.4367,-88.0117,0.93,24.33,1111122 
DISL,ioos:station:DISL:MBLA:1,2011-11-01T06:14:00Z,30.4367,-88.0117,0.478,24.26,1111122 
DISL,ioos:station:DISL:MBLA:1,2011-11-01T06:30:00Z,30.4367,-88.0117,1.0,24.3,11111222 
DISL,ioos:station:DISL:MBLA:1,2011-11-01T07:02:00Z,30.4367,-88.0117,2.985,25.49,1111122 
DISL,ioos:station:DISL:MBLA:1,2011-11-01T07:05:00Z,30.4367,-88.0117,2.486,25.1,1111122 
DISL,ioos:station:DISL:MBLA:1,2011-11-01T07:07:00Z,30.4367,-88.0117,1.985,24.59,1111122 
DISL,ioos:station:DISL:MBLA:1,2011-11-01T07:10:00Z,30.4367,-88.0117,1.483,24.42,1111122 
DISL,ioos:station:DISL:MBLA:1,2011-11-01T07:12:00Z,30.4367,-88.0117,0.974,24.4,1111122 
DISL,ioos:station:DISL:MBLA:1,2011-11-01T07:14:00Z,30.4367,-88.0117,0.458,24.38,1111122 
DISL,ioos:station:DISL:MBLA:1,2011-11-01T07:30:00Z,30.4367,-88.0117,1.0,24.4,11111222 
DISL,ioos:station:DISL:MBLA:1,2011-11-01T08:02:00Z,30.4367,-88.0117,2.946,27.22,1111122 
DISL,ioos:station:DISL:MBLA:1,2011-11-01T08:05:00Z,30.4367,-88.0117,2.506,26.61,1111122 
DISL,ioos:station:DISL:MBLA:1,2011-11-01T08:07:00Z,30.4367,-88.0117,2.004,25.22,1111122 
DISL,ioos:station:DISL:MBLA:1,2011-11-01T08:10:00Z,30.4367,-88.0117,1.494,24.94,1111122 
DISL,ioos:station:DISL:MBLA:1,2011-11-01T08:12:00Z,30.4367,-88.0117,0.992,24.51,1111122 
DISL,ioos:station:DISL:MBLA:1,2011-11-01T08:15:00Z,30.4367,-88.0117,0.433,24.37,1111122 
DISL,ioos:station:DISL:MBLA:1,2011-11-01T08:30:00Z,30.4367,-88.0117,1.0,24.5,11111222 
DISL,ioos:station:DISL:MBLA:1,2011-11-01T09:02:00Z,30.4367,-88.0117,2.962,26.71,1111122 
DISL,ioos:station:DISL:MBLA:1,2011-11-01T09:05:00Z,30.4367,-88.0117,2.568,25.38,1111122 
DISL,ioos:station:DISL:MBLA:1,2011-11-01T09:08:00Z,30.4367,-88.0117,2.283,25.34,1111122 
DISL,ioos:station:DISL:MBLA:1,2011-11-01T09:10:00Z,30.4367,-88.0117,1.465,24.48,1111122 
DISL,ioos:station:DISL:MBLA:1,2011-11-01T09:13:00Z,30.4367,-88.0117,1.001,24.28,1111122 
DISL,ioos:station:DISL:MBLA:1,2011-11-01T09:15:00Z,30.4367,-88.0117,0.436,24.23,1111122 
DISL,ioos:station:DISL:MBLA:1,2011-11-01T09:30:00Z,30.4367,-88.0117,1.0,24.3,11111222 
DISL,ioos:station:DISL:MBLA:1,2011-11-01T10:02:00Z,30.4367,-88.0117,2.939,25.71,1111122 
DISL,ioos:station:DISL:MBLA:1,2011-11-01T10:05:00Z,30.4367,-88.0117,2.504,25.16,1111122 
DISL,ioos:station:DISL:MBLA:1,2011-11-01T10:07:00Z,30.4367,-88.0117,1.997,24.74,1111122 
DISL,ioos:station:DISL:MBLA:1,2011-11-01T10:10:00Z,30.4367,-88.0117,1.486,24.33,1111122 
DISL,ioos:station:DISL:MBLA:1,2011-11-01T10:12:00Z,30.4367,-88.0117,0.969,24.25,1111122 
DISL,ioos:station:DISL:MBLA:1,2011-11-01T10:14:00Z,30.4367,-88.0117,0.46,24.17,1111122 
DISL,ioos:station:DISL:MBLA:1,2011-11-01T10:30:00Z,30.4367,-88.0117,1.0,24.3,11111222 
DISL,ioos:station:DISL:MBLA:1,2011-11-01T11:02:00Z,30.4367,-88.0117,2.936,26.15,1111122 
DISL,ioos:station:DISL:MBLA:1,2011-11-01T11:05:00Z,30.4367,-88.0117,2.463,25.16,1111122 
DISL,ioos:station:DISL:MBLA:1,2011-11-01T11:07:00Z,30.4367,-88.0117,2.017,24.8,1111122 
DISL,ioos:station:DISL:MBLA:1,2011-11-01T11:10:00Z,30.4367,-88.0117,1.503,24.64,1111122 
DISL,ioos:station:DISL:MBLA:1,2011-11-01T11:12:00Z,30.4367,-88.0117,1.061,24.55,1111122 
DISL,ioos:station:DISL:MBLA:1,2011-11-01T11:14:00Z,30.4367,-88.0117,0.596,24.5,1111122 
DISL,ioos:station:DISL:MBLA:1,2011-11-01T11:30:00Z,30.4367,-88.0117,1.0,24.6,11111222 
DISL,ioos:station:DISL:MBLA:1,2011-11-01T12:02:00Z,30.4367,-88.0117,2.943,24.6,1111122 
DISL,ioos:station:DISL:MBLA:1,2011-11-01T12:05:00Z,30.4367,-88.0117,2.513,24.59,1111122 
DISL,ioos:station:DISL:MBLA:1,2011-11-01T12:07:00Z,30.4367,-88.0117,2.003,24.36,1111122 
DISL,ioos:station:DISL:MBLA:1,2011-11-01T12:10:00Z,30.4367,-88.0117,1.498,24.33,1111122 
DISL,ioos:station:DISL:MBLA:1,2011-11-01T12:12:00Z,30.4367,-88.0117,0.982,24.14,1111122 
DISL,ioos:station:DISL:MBLA:1,2011-11-01T12:15:00Z,30.4367,-88.0117,0.451,24.13,1111122 
DISL,ioos:station:DISL:MBLA:1,2011-11-01T12:30:00Z,30.4367,-88.0117,1.0,24.1,11111222 
DISL,ioos:station:DISL:MBLA:1,2011-11-01T13:02:00Z,30.4367,-88.0117,2.916,24.49,1111122 
DISL,ioos:station:DISL:MBLA:1,2011-11-01T13:05:00Z,30.4367,-88.0117,2.489,24.34,1111122 
DISL,ioos:station:DISL:MBLA:1,2011-11-01T13:07:00Z,30.4367,-88.0117,1.974,24.22,1111122 
DISL,ioos:station:DISL:MBLA:1,2011-11-01T13:10:00Z,30.4367,-88.0117,1.53,24.11,1111122 
DISL,ioos:station:DISL:MBLA:1,2011-11-01T13:12:00Z,30.4367,-88.0117,1.03,24.1,1111122 
DISL,ioos:station:DISL:MBLA:1,2011-11-01T13:14:00Z,30.4367,-88.0117,0.477,24.02,1111122 
DISL,ioos:station:DISL:MBLA:1,2011-11-01T13:30:00Z,30.4367,-88.0117,1.0,24.1,11111222 
DISL,ioos:station:DISL:MBLA:1,2011-11-01T14:02:00Z,30.4367,-88.0117,2.946,24.56,1111122 
DISL,ioos:station:DISL:MBLA:1,2011-11-01T14:05:00Z,30.4367,-88.0117,2.498,24.18,1111122 
DISL,ioos:station:DISL:MBLA:1,2011-11-01T14:07:00Z,30.4367,-88.0117,1.945,23.89,1111122 
DISL,ioos:station:DISL:MBLA:1,2011-11-01T14:10:00Z,30.4367,-88.0117,1.474,23.8,1111122 
DISL,ioos:station:DISL:MBLA:1,2011-11-01T14:12:00Z,30.4367,-88.0117,1.106,23.75,1111122 
DISL,ioos:station:DISL:MBLA:1,2011-11-01T14:15:00Z,30.4367,-88.0117,0.394,23.73,1111122 
DISL,ioos:station:DISL:MBLA:1,2011-11-01T14:30:00Z,30.4367,-88.0117,1.0,23.8,11111222 
DISL,ioos:station:DISL:MBLA:1,2011-11-01T15:02:00Z,30.4367,-88.0117,2.997,23.7,1111122 
DISL,ioos:station:DISL:MBLA:1,2011-11-01T15:05:00Z,30.4367,-88.0117,2.464,23.69,1111122 
DISL,ioos:station:DISL:MBLA:1,2011-11-01T15:07:00Z,30.4367,-88.0117,1.899,23.44,1111122 
DISL,ioos:station:DISL:MBLA:1,2011-11-01T15:10:00Z,30.4367,-88.0117,1.425,23.38,1111122 
DISL,ioos:station:DISL:MBLA:1,2011-11-01T15:12:00Z,30.4367,-88.0117,0.91,23.33,1111122 
DISL,ioos:station:DISL:MBLA:1,2011-11-01T15:15:00Z,30.4367,-88.0117,0.527,23.32,1111122 
DISL,ioos:station:DISL:MBLA:1,2011-11-01T15:30:00Z,30.4367,-88.0117,1.0,23.3,11111222 
DISL,ioos:station:DISL:MBLA:1,2011-11-01T16:02:00Z,30.4367,-88.0117,2.981,23.92,1111122 
DISL,ioos:station:DISL:MBLA:1,2011-11-01T16:05:00Z,30.4367,-88.0117,2.464,23.38,1111122 
DISL,ioos:station:DISL:MBLA:1,2011-11-01T16:07:00Z,30.4367,-88.0117,2.058,23.18,1111122 
DISL,ioos:station:DISL:MBLA:1,2011-11-01T16:10:00Z,30.4367,-88.0117,1.579,23.12,1111122 
DISL,ioos:station:DISL:MBLA:1,2011-11-01T16:12:00Z,30.4367,-88.0117,0.874,23.1,1111122 
DISL,ioos:station:DISL:MBLA:1,2011-11-01T16:15:00Z,30.4367,-88.0117,0.577,23.04,1111122 
DISL,ioos:station:DISL:MBLA:1,2011-11-01T16:30:00Z,30.4367,-88.0117,1.0,23.1,11111222 
DISL,ioos:station:DISL:MBLA:1,2011-11-01T17:02:00Z,30.4367,-88.0117,3.007,24.04,1111122 
DISL,ioos:station:DISL:MBLA:1,2011-11-01T17:05:00Z,30.4367,-88.0117,2.489,23.07,1111122 
DISL,ioos:station:DISL:MBLA:1,2011-11-01T17:07:00Z,30.4367,-88.0117,1.91,22.87,1111122 
DISL,ioos:station:DISL:MBLA:1,2011-11-01T17:10:00Z,30.4367,-88.0117,1.405,22.81,1111122 
DISL,ioos:station:DISL:MBLA:1,2011-11-01T17:12:00Z,30.4367,-88.0117,0.88,22.74,1111122 
DISL,ioos:station:DISL:MBLA:1,2011-11-01T17:15:00Z,30.4367,-88.0117,0.594,22.72,1111122 
DISL,ioos:station:DISL:MBLA:1,2011-11-01T17:30:00Z,30.4367,-88.0117,1.0,22.7,11111222 
DISL,ioos:station:DISL:MBLA:1,2011-11-01T18:02:00Z,30.4367,-88.0117,2.949,23.68,1111122 
DISL,ioos:station:DISL:MBLA:1,2011-11-01T18:05:00Z,30.4367,-88.0117,2.491,22.93,1111122 
DISL,ioos:station:DISL:MBLA:1,2011-11-01T18:07:00Z,30.4367,-88.0117,1.987,22.85,1111122 
DISL,ioos:station:DISL:MBLA:1,2011-11-01T18:10:00Z,30.4367,-88.0117,1.485,22.73,1111122 
DISL,ioos:station:DISL:MBLA:1,2011-11-01T18:12:00Z,30.4367,-88.0117,0.992,22.65,1111122 
DISL,ioos:station:DISL:MBLA:1,2011-11-01T18:15:00Z,30.4367,-88.0117,0.546,22.62,1111122 
DISL,ioos:station:DISL:MBLA:1,2011-11-01T18:30:00Z,30.4367,-88.0117,1.0,22.7,11111222 
DISL,ioos:station:DISL:MBLA:1,2011-11-01T19:02:00Z,30.4367,-88.0117,3.049,23.3,1111122 
DISL,ioos:station:DISL:MBLA:1,2011-11-01T19:05:00Z,30.4367,-88.0117,2.516,22.88,1111122 
DISL,ioos:station:DISL:MBLA:1,2011-11-01T19:07:00Z,30.4367,-88.0117,2.051,22.72,1111122 
DISL,ioos:station:DISL:MBLA:1,2011-11-01T19:10:00Z,30.4367,-88.0117,1.406,22.63,1111122 
DISL,ioos:station:DISL:MBLA:1,2011-11-01T19:12:00Z,30.4367,-88.0117,0.912,22.64,1111122 
DISL,ioos:station:DISL:MBLA:1,2011-11-01T19:15:00Z,30.4367,-88.0117,0.351,22.62,1111122 
DISL,ioos:station:DISL:MBLA:1,2011-11-01T19:30:00Z,30.4367,-88.0117,1.0,22.6,11111222 
DISL,ioos:station:DISL:MBLA:1,2011-11-01T20:02:00Z,30.4367,-88.0117,2.976,23.15,1111122 
DISL,ioos:station:DISL:MBLA:1,2011-11-01T20:05:00Z,30.4367,-88.0117,2.45,22.95,1111122 
DISL,ioos:station:DISL:MBLA:1,2011-11-01T20:07:00Z,30.4367,-88.0117,1.962,22.85,1111122 
DISL,ioos:station:DISL:MBLA:1,2011-11-01T20:10:00Z,30.4367,-88.0117,1.396,22.8,1111122 
DISL,ioos:station:DISL:MBLA:1,2011-11-01T20:12:00Z,30.4367,-88.0117,0.921,22.72,1111122 
DISL,ioos:station:DISL:MBLA:1,2011-11-01T20:15:00Z,30.4367,-88.0117,0.593,22.72,1111122 
DISL,ioos:station:DISL:MBLA:1,2011-11-01T20:30:00Z,30.4367,-88.0117,1.0,22.7,11111222 
DISL,ioos:station:DISL:MBLA:1,2011-11-01T21:02:00Z,30.4367,-88.0117,2.931,22.8,1111122 
DISL,ioos:station:DISL:MBLA:1,2011-11-01T21:05:00Z,30.4367,-88.0117,2.47,22.73,1111122 
DISL,ioos:station:DISL:MBLA:1,2011-11-01T21:07:00Z,30.4367,-88.0117,1.973,22.7,1111122 
DISL,ioos:station:DISL:MBLA:1,2011-11-01T21:10:00Z,30.4367,-88.0117,1.489,22.67,1111122 
DISL,ioos:station:DISL:MBLA:1,2011-11-01T21:12:00Z,30.4367,-88.0117,0.975,22.65,1111122 
DISL,ioos:station:DISL:MBLA:1,2011-11-01T21:14:00Z,30.4367,-88.0117,0.483,22.63,1111122 
DISL,ioos:station:DISL:MBLA:1,2011-11-01T21:30:00Z,30.4367,-88.0117,1.0,22.7,11111222 
DISL,ioos:station:DISL:MBLA:1,2011-11-01T22:02:00Z,30.4367,-88.0117,3.014,22.81,1111122 
DISL,ioos:station:DISL:MBLA:1,2011-11-01T22:05:00Z,30.4367,-88.0117,2.489,22.76,1111122 
DISL,ioos:station:DISL:MBLA:1,2011-11-01T22:07:00Z,30.4367,-88.0117,1.93,22.74,1111122 
DISL,ioos:station:DISL:MBLA:1,2011-11-01T22:10:00Z,30.4367,-88.0117,1.446,22.71,1111122 
DISL,ioos:station:DISL:MBLA:1,2011-11-01T22:12:00Z,30.4367,-88.0117,0.942,22.72,1111122 
DISL,ioos:station:DISL:MBLA:1,2011-11-01T22:15:00Z,30.4367,-88.0117,0.646,22.72,1111122 
DISL,ioos:station:DISL:MBLA:1,2011-11-01T22:30:00Z,30.4367,-88.0117,1.0,22.7,11111222 
DISL,ioos:station:DISL:MBLA:1,2011-11-01T23:02:00Z,30.4367,-88.0117,2.998,22.81,1111122 
DISL,ioos:station:DISL:MBLA:1,2011-11-01T23:05:00Z,30.4367,-88.0117,2.495,22.78,1111122 
DISL,ioos:station:DISL:MBLA:1,2011-11-01T23:07:00Z,30.4367,-88.0117,1.95,22.67,1111122 
DISL,ioos:station:DISL:MBLA:1,2011-11-01T23:10:00Z,30.4367,-88.0117,1.479,22.65,1111122 
DISL,ioos:station:DISL:MBLA:1,2011-11-01T23:12:00Z,30.4367,-88.0117,0.992,22.65,1111122 
DISL,ioos:station:DISL:MBLA:1,2011-11-01T23:15:00Z,30.4367,-88.0117,0.6,22.63,1111122 
DISL,ioos:station:DISL:MBLA:1,2011-11-01T23:30:00Z,30.4367,-88.0117,1.0,22.7,11111222 
DISL,ioos:station:DISL:MBLA:1,2011-11-02T00:02:00Z,30.4367,-88.0117,3.006,22.8,1111122 
DISL,ioos:station:DISL:MBLA:1,2011-11-02T00:05:00Z,30.4367,-88.0117,2.493,22.75,1111122 
DISL,ioos:station:DISL:MBLA:1,2011-11-02T00:07:00Z,30.4367,-88.0117,1.967,22.7,1111122 
DISL,ioos:station:DISL:MBLA:1,2011-11-02T00:10:00Z,30.4367,-88.0117,1.528,22.69,1111122 
DISL,ioos:station:DISL:MBLA:1,2011-11-02T00:12:00Z,30.4367,-88.0117,0.962,22.63,1111122 
DISL,ioos:station:DISL:MBLA:1,2011-11-02T00:14:00Z,30.4367,-88.0117,0.431,22.64,1111122 
DISL,ioos:station:DISL:MBLA:1,2011-11-02T00:30:00Z,30.4367,-88.0117,1.0,22.6,11111222 
DISL,ioos:station:DISL:MBLA:1,2011-11-02T01:02:00Z,30.4367,-88.0117,2.949,23.28,1111122 
DISL,ioos:station:DISL:MBLA:1,2011-11-02T01:05:00Z,30.4367,-88.0117,2.514,23.17,1111122 
DISL,ioos:station:DISL:MBLA:1,2011-11-02T01:07:00Z,30.4367,-88.0117,1.982,22.93,1111122 
DISL,ioos:station:DISL:MBLA:1,2011-11-02T01:10:00Z,30.4367,-88.0117,1.457,22.83,1111122 
DISL,ioos:station:DISL:MBLA:1,2011-11-02T01:12:00Z,30.4367,-88.0117,0.993,22.79,1111122 
DISL,ioos:station:DISL:MBLA:1,2011-11-02T01:14:00Z,30.4367,-88.0117,0.464,22.78,1111122 
DISL,ioos:station:DISL:MBLA:1,2011-11-02T01:30:00Z,30.4367,-88.0117,1.0,22.8,11111222 
DISL,ioos:station:DISL:MBLA:1,2011-11-02T02:02:00Z,30.4367,-88.0117,2.967,23.63,1111122 
DISL,ioos:station:DISL:MBLA:1,2011-11-02T02:05:00Z,30.4367,-88.0117,2.555,23.41,1111122 
DISL,ioos:station:DISL:MBLA:1,2011-11-02T02:07:00Z,30.4367,-88.0117,1.799,23.28,1111122 
DISL,ioos:station:DISL:MBLA:1,2011-11-02T02:10:00Z,30.4367,-88.0117,1.562,23.22,1111122 
DISL,ioos:station:DISL:MBLA:1,2011-11-02T02:12:00Z,30.4367,-88.0117,1.039,23.1,1111122 
DISL,ioos:station:DISL:MBLA:1,2011-11-02T02:15:00Z,30.4367,-88.0117,0.446,22.95,1111122 
DISL,ioos:station:DISL:MBLA:1,2011-11-02T02:30:00Z,30.4367,-88.0117,1.0,23.1,11111222 
DISL,ioos:station:DISL:MBLA:1,2011-11-02T03:02:00Z,30.4367,-88.0117,3.004,25.02,1111122 
DISL,ioos:station:DISL:MBLA:1,2011-11-02T03:05:00Z,30.4367,-88.0117,2.499,24.47,1111122 
DISL,ioos:station:DISL:MBLA:1,2011-11-02T03:07:00Z,30.4367,-88.0117,1.978,23.68,1111122 
DISL,ioos:station:DISL:MBLA:1,2011-11-02T03:10:00Z,30.4367,-88.0117,1.457,23.54,1111122 
DISL,ioos:station:DISL:MBLA:1,2011-11-02T03:12:00Z,30.4367,-88.0117,0.984,23.47,1111122 
DISL,ioos:station:DISL:MBLA:1,2011-11-02T03:14:00Z,30.4367,-88.0117,0.463,23.03,1111122 
DISL,ioos:station:DISL:MBLA:1,2011-11-02T03:30:00Z,30.4367,-88.0117,1.0,23.5,11111222 
DISL,ioos:station:DISL:MBLA:1,2011-11-02T04:02:00Z,30.4367,-88.0117,2.982,25.42,1111122 
DISL,ioos:station:DISL:MBLA:1,2011-11-02T04:05:00Z,30.4367,-88.0117,2.486,24.35,1111122 
DISL,ioos:station:DISL:MBLA:1,2011-11-02T04:07:00Z,30.4367,-88.0117,1.97,24.08,1111122 
DISL,ioos:station:DISL:MBLA:1,2011-11-02T04:10:00Z,30.4367,-88.0117,1.515,23.75,1111122 
DISL,ioos:station:DISL:MBLA:1,2011-11-02T04:12:00Z,30.4367,-88.0117,0.989,23.51,1111122 
DISL,ioos:station:DISL:MBLA:1,2011-11-02T04:14:00Z,30.4367,-88.0117,0.465,23.18,1111122 
DISL,ioos:station:DISL:MBLA:1,2011-11-02T04:30:00Z,30.4367,-88.0117,1.0,23.5,11111222 
DISL,ioos:station:DISL:MBLA:1,2011-11-02T05:02:00Z,30.4367,-88.0117,2.997,25.04,1111122 
DISL,ioos:station:DISL:MBLA:1,2011-11-02T05:05:00Z,30.4367,-88.0117,2.496,24.1,1111122 
DISL,ioos:station:DISL:MBLA:1,2011-11-02T05:07:00Z,30.4367,-88.0117,1.984,23.75,1111122 
DISL,ioos:station:DISL:MBLA:1,2011-11-02T05:10:00Z,30.4367,-88.0117,1.465,23.57,1111122 
DISL,ioos:station:DISL:MBLA:1,2011-11-02T05:12:00Z,30.4367,-88.0117,1.003,23.49,1111122 
DISL,ioos:station:DISL:MBLA:1,2011-11-02T05:14:00Z,30.4367,-88.0117,0.49,23.44,1111122 
DISL,ioos:station:DISL:MBLA:1,2011-11-02T05:30:00Z,30.4367,-88.0117,1.0,23.5,11111222 
DISL,ioos:station:DISL:MBLA:1,2011-11-02T06:02:00Z,30.4367,-88.0117,2.99,26.11,1111122 
DISL,ioos:station:DISL:MBLA:1,2011-11-02T06:05:00Z,30.4367,-88.0117,2.501,25.04,1111122 
DISL,ioos:station:DISL:MBLA:1,2011-11-02T06:07:00Z,30.4367,-88.0117,2.001,25.24,1111122 
DISL,ioos:station:DISL:MBLA:1,2011-11-02T06:10:00Z,30.4367,-88.0117,1.494,24.02,1111122 
DISL,ioos:station:DISL:MBLA:1,2011-11-02T06:12:00Z,30.4367,-88.0117,0.976,23.87,1111122 
DISL,ioos:station:DISL:MBLA:1,2011-11-02T06:14:00Z,30.4367,-88.0117,0.448,23.83,1111122 
DISL,ioos:station:DISL:MBLA:1,2011-11-02T06:30:00Z,30.4367,-88.0117,1.0,23.9,11111222 
DISL,ioos:station:DISL:MBLA:1,2011-11-02T07:02:00Z,30.4367,-88.0117,2.981,26.33,1111122 
DISL,ioos:station:DISL:MBLA:1,2011-11-02T07:05:00Z,30.4367,-88.0117,2.478,25.7,1111122 
DISL,ioos:station:DISL:MBLA:1,2011-11-02T07:07:00Z,30.4367,-88.0117,1.968,24.86,1111122 
DISL,ioos:station:DISL:MBLA:1,2011-11-02T07:10:00Z,30.4367,-88.0117,1.446,24.2,1111122 
DISL,ioos:station:DISL:MBLA:1,2011-11-02T07:12:00Z,30.4367,-88.0117,0.982,24.11,1111122 
DISL,ioos:station:DISL:MBLA:1,2011-11-02T07:14:00Z,30.4367,-88.0117,0.525,24.08,1111122 
DISL,ioos:station:DISL:MBLA:1,2011-11-02T07:30:00Z,30.4367,-88.0117,1.0,24.1,11111222 
DISL,ioos:station:DISL:MBLA:1,2011-11-02T08:02:00Z,30.4367,-88.0117,2.955,26.3,1111122 
DISL,ioos:station:DISL:MBLA:1,2011-11-02T08:05:00Z,30.4367,-88.0117,2.517,25.93,1111122 
DISL,ioos:station:DISL:MBLA:1,2011-11-02T08:07:00Z,30.4367,-88.0117,2.014,24.59,1111122 
DISL,ioos:station:DISL:MBLA:1,2011-11-02T08:10:00Z,30.4367,-88.0117,1.495,24.45,1111122 
DISL,ioos:station:DISL:MBLA:1,2011-11-02T08:12:00Z,30.4367,-88.0117,0.942,24.39,1111122 
DISL,ioos:station:DISL:MBLA:1,2011-11-02T08:14:00Z,30.4367,-88.0117,0.464,24.38,1111122 
DISL,ioos:station:DISL:MBLA:1,2011-11-02T08:30:00Z,30.4367,-88.0117,1.0,24.4,11111222 
DISL,ioos:station:DISL:MBLA:1,2011-11-02T09:02:00Z,30.4367,-88.0117,2.969,26.21,1111122 
DISL,ioos:station:DISL:MBLA:1,2011-11-02T09:05:00Z,30.4367,-88.0117,2.475,24.93,1111122 
DISL,ioos:station:DISL:MBLA:1,2011-11-02T09:07:00Z,30.4367,-88.0117,1.963,24.73,1111122 
DISL,ioos:station:DISL:MBLA:1,2011-11-02T09:10:00Z,30.4367,-88.0117,1.453,24.71,1111122 
DISL,ioos:station:DISL:MBLA:1,2011-11-02T09:12:00Z,30.4367,-88.0117,0.939,24.67,1111122 
DISL,ioos:station:DISL:MBLA:1,2011-11-02T09:15:00Z,30.4367,-88.0117,0.458,24.58,1111122 
DISL,ioos:station:DISL:MBLA:1,2011-11-02T09:30:00Z,30.4367,-88.0117,1.0,24.7,11111222 
DISL,ioos:station:DISL:MBLA:1,2011-11-02T10:02:00Z,30.4367,-88.0117,2.987,25.25,1111122 
DISL,ioos:station:DISL:MBLA:1,2011-11-02T10:05:00Z,30.4367,-88.0117,2.498,24.78,1111122 
DISL,ioos:station:DISL:MBLA:1,2011-11-02T10:07:00Z,30.4367,-88.0117,2.001,24.7,1111122 
DISL,ioos:station:DISL:MBLA:1,2011-11-02T10:10:00Z,30.4367,-88.0117,1.498,24.66,1111122 
DISL,ioos:station:DISL:MBLA:1,2011-11-02T10:12:00Z,30.4367,-88.0117,0.92,24.6,1111122 
DISL,ioos:station:DISL:MBLA:1,2011-11-02T10:14:00Z,30.4367,-88.0117,0.462,24.63,1111122 
DISL,ioos:station:DISL:MBLA:1,2011-11-02T10:30:00Z,30.4367,-88.0117,1.0,24.6,11111222 
DISL,ioos:station:DISL:MBLA:1,2011-11-02T11:02:00Z,30.4367,-88.0117,2.928,25.35,1111122 
DISL,ioos:station:DISL:MBLA:1,2011-11-02T11:05:00Z,30.4367,-88.0117,2.506,24.81,1111122 
DISL,ioos:station:DISL:MBLA:1,2011-11-02T11:07:00Z,30.4367,-88.0117,1.944,24.71,1111122 
DISL,ioos:station:DISL:MBLA:1,2011-11-02T11:10:00Z,30.4367,-88.0117,1.471,24.69,1111122 
DISL,ioos:station:DISL:MBLA:1,2011-11-02T11:12:00Z,30.4367,-88.0117,0.94,24.65,1111122 
DISL,ioos:station:DISL:MBLA:1,2011-11-02T11:14:00Z,30.4367,-88.0117,0.553,24.65,1111122 
DISL,ioos:station:DISL:MBLA:1,2011-11-02T11:30:00Z,30.4367,-88.0117,1.0,24.7,11111222 
DISL,ioos:station:DISL:MBLA:1,2011-11-02T12:02:00Z,30.4367,-88.0117,2.934,26.14,1111122 
DISL,ioos:station:DISL:MBLA:1,2011-11-02T12:05:00Z,30.4367,-88.0117,2.513,25.19,1111122 
DISL,ioos:station:DISL:MBLA:1,2011-11-02T12:07:00Z,30.4367,-88.0117,2.064,24.78,1111122 
DISL,ioos:station:DISL:MBLA:1,2011-11-02T12:10:00Z,30.4367,-88.0117,1.531,24.63,1111122 
DISL,ioos:station:DISL:MBLA:1,2011-11-02T12:12:00Z,30.4367,-88.0117,0.895,24.63,1111122 
DISL,ioos:station:DISL:MBLA:1,2011-11-02T12:15:00Z,30.4367,-88.0117,0.503,24.6,1111122 
DISL,ioos:station:DISL:MBLA:1,2011-11-02T12:30:00Z,30.4367,-88.0117,1.0,24.6,11111222 
DISL,ioos:station:DISL:MBLA:1,2011-11-02T13:02:00Z,30.4367,-88.0117,2.958,24.71,1111122 
DISL,ioos:station:DISL:MBLA:1,2011-11-02T13:05:00Z,30.4367,-88.0117,2.477,24.75,1111122 
DISL,ioos:station:DISL:MBLA:1,2011-11-02T13:07:00Z,30.4367,-88.0117,1.976,24.6,1111122 
DISL,ioos:station:DISL:MBLA:1,2011-11-02T13:10:00Z,30.4367,-88.0117,1.375,24.49,1111122 
DISL,ioos:station:DISL:MBLA:1,2011-11-02T13:12:00Z,30.4367,-88.0117,0.879,24.44,1111122 
DISL,ioos:station:DISL:MBLA:1,2011-11-02T13:15:00Z,30.4367,-88.0117,0.5,24.43,1111122 
DISL,ioos:station:DISL:MBLA:1,2011-11-02T13:30:00Z,30.4367,-88.0117,1.0,24.4,11111222 
DISL,ioos:station:DISL:MBLA:1,2011-11-02T14:02:00Z,30.4367,-88.0117,2.955,25.11,1111122 
DISL,ioos:station:DISL:MBLA:1,2011-11-02T14:05:00Z,30.4367,-88.0117,2.511,24.41,1111122 
DISL,ioos:station:DISL:MBLA:1,2011-11-02T14:07:00Z,30.4367,-88.0117,1.887,24.21,1111122 
DISL,ioos:station:DISL:MBLA:1,2011-11-02T14:10:00Z,30.4367,-88.0117,1.364,24.09,1111122 